FW8660 Weather Reports


time (UTC)temp
C
wind
direction
speed
KPH
gust
KPH
rain 1hr
cm
rain 24hr
cm
rain mn
cm
humidity
%
barometer
mb
20260510210028 19 0 0.0 3.2 0.00 0.00 0.00 64 1013.3
20260510204539 19 0 0.0 8.0 0.00 0.00 0.00 63 1013.1
20260510203029 20 318 1.6 8.0 0.00 0.00 0.00 63 1012.9
20260510201527 20 278 1.6 4.8 0.00 0.00 0.00 61 1012.4
20260510200028 20 0 0.0 3.2 0.00 0.00 0.00 60 1012.1
20260510194543 21 252 3.2 6.4 0.00 0.00 0.00 59 1011.9
20260510193028 21 211 3.2 14.5 0.00 0.00 0.00 58 1011.8
20260510191529 21 207 3.2 9.7 0.00 0.00 0.00 57 1011.7
20260510190042 21 202 6.4 14.5 0.00 0.00 0.00 56 1011.5
20260510184530 21 188 4.8 14.5 0.00 0.00 0.00 55 1011.4
20260510183030 21 198 12.9 27.4 0.00 0.00 0.00 53 1011.3
20260510181528 22 173 12.9 25.7 0.00 0.00 0.00 53 1011.3
20260510180027 22 190 11.3 25.7 0.00 0.00 0.00 52 1011.4
20260510174527 22 173 14.5 35.4 0.00 0.00 0.00 51 1011.2
20260510173030 22 207 19.3 35.4 0.00 0.00 0.00 50 1011.1
20260510171530 23 154 16.1 30.6 0.00 0.00 0.00 51 1011.1
20260510170029 23 202 11.3 27.4 0.00 0.00 0.00 51 1011.0
20260510164528 23 192 14.5 27.4 0.00 0.00 0.00 50 1011.1
20260510163028 23 177 14.5 29.0 0.00 0.00 0.00 50 1011.1
20260510161528 23 201 16.1 29.0 0.00 0.00 0.00 49 1011.2
20260510160035 23 189 19.3 35.4 0.00 0.00 0.00 48 1011.2
20260510154529 23 181 20.9 38.6 0.00 0.00 0.00 47 1011.2
20260510153032 24 212 17.7 46.7 0.00 0.00 0.00 47 1011.2
20260510151530 24 266 11.3 45.1 0.00 0.00 0.00 48 1011.2
20260510150030 24 183 20.9 43.5 0.00 0.00 0.00 47 1011.5
20260510144533 24 188 12.9 24.1 0.00 0.00 0.00 48 1011.6
20260510143028 24 189 14.5 25.7 0.00 0.00 0.00 48 1011.8
20260510141527 24 169 19.3 40.2 0.00 0.00 0.00 48 1011.8
20260510140028 24 196 16.1 33.8 0.00 0.00 0.00 47 1012.2
20260510134530 25 200 12.9 30.6 0.00 0.00 0.00 45 1012.3
20260510133034 25 163 16.1 33.8 0.00 0.00 0.00 47 1012.5
20260510131535 25 202 14.5 38.6 0.00 0.00 0.00 44 1012.7
20260510130028 25 232 11.3 27.4 0.00 0.00 0.00 49 1012.8
20260510124531 24 210 14.5 29.0 0.00 0.00 0.00 50 1013.0
20260510123030 25 192 12.9 32.2 0.00 0.00 0.00 48 1013.0
20260510121532 25 210 9.7 19.3 0.00 0.00 0.00 51 1013.2
20260510120030 23 188 4.8 16.1 0.00 0.00 0.00 63 1013.5
20260510114545 23 185 8.0 22.5 0.00 0.00 0.00 64 1013.7
20260510113039 23 178 8.0 14.5 0.00 0.00 0.00 63 1014.0
20260510111533 23 202 8.0 20.9 0.00 0.00 0.00 59 1014.3
20260510110037 24 126 11.3 25.7 0.00 0.00 0.00 56 1014.3
20260510104528 24 202 6.4 22.5 0.00 0.00 0.00 53 1014.4
20260510103027 23 181 8.0 20.9 0.00 0.00 0.00 53 1014.4
20260510101528 22 347 8.0 14.5 0.00 0.00 0.00 61 1014.6
20260510100033 22 174 9.7 16.1 0.00 0.00 0.00 64 1014.7
20260510094535 21 125 4.8 16.1 0.00 0.30 0.00 67 1014.7
20260510093030 21 0 3.2 11.3 0.00 0.30 0.00 66 1014.9
20260510091530 21 315 0.0 8.0 0.00 0.30 0.00 68 1015.0
20260510090029 20 0 0.0 9.7 0.00 0.30 0.00 69 1015.0
20260510084530 19 0 0.0 6.4 0.00 0.51 0.00 72 1015.2
20260510083030 18 251 1.6 4.8 0.00 0.51 0.00 74 1015.3
20260510081533 17 269 3.2 6.4 0.00 0.51 0.00 77 1015.3
20260510080031 16 274 1.6 3.2 0.00 0.51 0.00 81 1015.3
20260510074538 16 274 0.0 4.8 0.00 0.76 0.00 84 1015.5
20260510073028 15 273 3.2 8.0 0.00 0.76 0.00 85 1015.6
20260510071528 15 258 4.8 11.3 0.00 0.76 0.00 86 1015.6
20260510070033 14 246 4.8 11.3 0.00 0.76 0.00 87 1015.5
20260510064531 14 294 1.6 4.8 0.00 0.97 0.00 89 1015.4
20260510063027 13 0 0.0 1.6 0.00 0.97 0.00 89 1015.2
20260510061530 13 0 0.0 3.2 0.00 0.97 0.00 89 1015.2
20260510060033 13 0 0.0 0.0 0.00 0.97 0.00 89 1015.3
20260510054531 13 0 0.0 3.2 0.00 1.07 0.00 89 1014.9
20260510053029 12 108 0.0 4.8 0.00 1.07 0.00 89 1014.9
20260510051532 12 95 0.0 3.2 0.00 1.07 0.00 88 1014.8
20260510050031 12 0 0.0 0.0 0.00 1.07 0.00 88 1014.9
20260510044530 12 0 0.0 1.6 0.00 1.07 0.00 88 1014.8
20260510043028 12 0 0.0 3.2 0.00 1.07 0.00 88 1014.9
20260510041544 12 0 0.0 3.2 0.00 1.07 0.00 88 1014.8
20260510040032 12 0 0.0 4.8 0.00 1.07 0.00 87 1014.7
20260510034530 12 96 0.0 3.2 0.00 1.07 0.00 87 1014.7
20260510033028 12 0 0.0 3.2 0.00 1.07 0.00 87 1014.7
20260510031534 12 0 0.0 3.2 0.00 1.07 0.00 87 1014.6
20260510030029 12 0 1.6 4.8 0.00 1.07 0.00 87 1014.5
20260510024527 12 96 1.6 4.8 0.00 1.07 0.00 87 1014.5
20260510023030 13 96 0.0 1.6 0.00 1.07 0.00 87 1014.4
20260510021535 13 0 0.0 3.2 0.00 1.07 0.00 86 1014.4
20260510020032 13 96 3.2 6.4 0.00 1.07 0.00 86 1014.3
20260510014534 13 0 0.0 3.2 0.00 1.07 0.00 86 1014.3
20260510013032 14 0 1.6 11.3 0.00 1.07 0.00 86 1014.2
20260510011530 13 113 1.6 6.4 0.00 1.07 0.00 86 1014.2
20260510010028 13 95 8.0 11.3 0.00 1.07 0.00 86 1014.4
20260510004531 14 118 4.8 9.7 0.00 1.07 0.00 86 1014.5
20260510003033 14 109 8.0 11.3 0.00 1.07 0.00 85 1014.6
20260510001538 13 120 6.4 11.3 0.00 1.07 0.00 84 1014.8
20260510000028 13 94 4.8 11.3 0.00 1.07 0.00 83 1014.7
20260509234530 13 110 3.2 6.4 0.00 1.07 0.00 82 1014.7
20260509233030 15 47 1.6 4.8 0.00 1.07 0.00 81 1014.9
20260509231531 15 105 3.2 4.8 0.00 1.07 0.00 80 1014.9
20260509230030 15 0 0.0 4.8 0.00 1.07 0.00 80 1014.9
20260509224530 15 348 1.6 4.8 0.00 1.07 0.00 80 1015.0
20260509223030 16 0 0.0 4.8 0.00 1.07 0.00 79 1015.0
20260509221527 16 0 0.0 0.0 0.00 1.07 0.00 78 1015.0
20260509220028 16 0 0.0 0.0 0.00 1.07 0.00 78 1014.9
20260509214537 16 0 0.0 0.0 0.00 1.07 1.07 77 1014.8
20260509213029 16 0 0.0 6.4 0.00 1.07 1.07 76 1014.7
20260509211529 16 195 3.2 11.3 0.00 1.07 1.07 76 1014.6